Wind_Speed
28 28 37 36 36 40 28 29 31 30 25 29 26 21 17 20 22 25 27 17 30 24 20 21 25 24 22 25 28 30 28 30 28 29 25 25 24 26 26 30 30 31 36 39
27 33 32 30 31 38 39 32 32 27 27 25 19 20 19 17 19 30 23 20 13 31 17 14 25 25 25 31 34 37 33 30 32 30 28 26 26 25 24 24 25 26 34 42
28 27 25 29 34 36 34 34 34 25 20 17 14 19 18 22 21 29 23 19 17 13 33 19 22 24 23 25 29 31 30 29 29 30 29 28 30 27 24 25 27 26 26 23
25 22 26 27 28 29 32 30 27 25 24 20 22 20 26 20 21 16 17 26 17 15 21 20 16 18 20 22 22 22 22 21 23 29 30 33 33 32 28 28 27 32 28 27
27 24 29 28 30 28 29 30 20 19 18 22 26 25 16 23 25 31 24 23 20 18 16 15 16 17 19 23 22 21 22 23 24 28 31 32 32 34 32 29 28 29 35 31
23 18 27 25 25 26 24 18 19 23 20 17 25 26 22 29 30 30 31 20 24 14 12 10 11 17 17 24 24 24 25 27 27 28 30 30 35 36 36 37 33 34 35 35
23 25 22 21 25 23 23 19 13 12 14 14 25 24 23 14 30 31 30 30 30 17 18 15 8 13 16 16 17 20 24 26 28 30 31 33 35 35 37 35 35 39 40 39
26 20 27 22 26 28 28 27 19 17 11 17 24 26 29 13 21 29 35 30 20 18 15 10 12 19 18 18 20 22 22 23 24 27 29 30 29 33 36 39 42 41 39 38
27 17 25 21 24 24 25 31 29 20 22 15 18 19 16 21 26 28 25 22 17 17 15 4 6 5 14 17 12 15 17 18 19 20 20 19 18 19 20 23 22 27 34 34
17 15 21 25 21 22 22 22 27 21 16 4 6 19 18 25 26 24 22 20 23 19 10 7 9 12 13 20 17 14 16 17 20 21 22 21 21 20 20 21 22 23 27 29
17 12 21 21 23 27 20 19 19 27 21 10 4 7 11 26 24 22 22 19 16 13 9 7 9 13 14 9 13 23 20 22 27 27 28 30 30 30 31 31 32 34 36 38
18 8 22 24 18 21 21 21 15 16 18 11 7 13 7 13 19 17 16 18 13 15 14 10 11 13 13 13 18 22 30 26 31 37 36 37 39 40 41 43 45 46 47 46
18 13 15 12 14 21 20 20 19 19 6 14 9 4 12 7 6 17 14 16 11 9 8 9 13 12 13 13 14 12 17 20 25 29 30 30 32 33 34 37 39 42 43 45
17 13 15 13 12 17 21 19 14 9 5 10 17 15 15 10 11 14 11 9 10 7 9 12 14 13 15 17 16 16 23 27 28 31 30 33 34 36 37 38 39 42 43 44
16 10 8 4 8 3 14 19 20 17 8 12 15 11 5 9 11 9 10 11 11 15 15 16 15 12 15 17 20 26 30 33 35 32 32 33 34 35 37 39 40 41 42 44
16 12 4 3 8 5 4 10 14 14 14 16 11 9 5 7 9 7 7 8 10 9 10 12 13 13 14 17 21 22 32 39 36 31 32 33 36 38 40 42 44 45 46 48
17 18 6 6 12 8 11 16 15 14 13 12 13 7 5 4 2 3 5 8 8 10 12 13 14 16 20 26 33 32 41 41 38 36 36 38 40 42 43 44 46 46 48 49
20 18 19 9 18 7 8 10 8 14 12 12 11 4 1 3 6 7 8 11 11 11 14 13 13 21 29 32 35 40 43 45 40 39 40 42 45 46 47 47 48 49 49 50
15 16 9 7 10 10 9 8 7 8 8 8 8 7 4 7 7 8 16 15 21 26 24 21 26 29 34 34 38 42 46 44 43 43 44 45 46 47 48 49 49 49 51 51
13 11 11 8 4 6 12 9 12 13 10 5 6 4 5 4 2 5 15 17 19 24 26 27 31 29 34 36 36 40 41 47 47 45 45 46 46 48 49 49 49 48 48 47
14 11 9 8 6 8 10 6 8 8 8 10 5 2 4 5 10 17 18 18 26 31 32 30 21 23 28 30 36 41 47 49 47 46 45 46 47 48 48 47 44 42 41 41
17 10 10 7 6 2 7 3 4 8 9 5 3 6 10 13 17 23 23 27 24 18 17 19 22 25 30 36 43 47 47 47 46 44 45 45 45 44 42 40 33 31 37 40
9 9 13 7 8 11 6 5 7 6 2 3 7 14 17 16 11 10 14 15 17 20 23 29 33 36 38 41 45 46 47 45 44 43 42 40 40 36 31 30 32 35 40 41
6 10 6 9 9 9 6 2 2 1 2 11 14 10 6 13 13 16 19 22 26 29 32 35 38 40 41 41 42 43 44 44 41 38 36 33 28 26 28 31 35 38 40 36
4 9 9 6 11 9 7 10 6 6 10 8 5 10 11 15 18 20 23 26 28 31 34 37 39 40 40 40 39 39 39 36 35 33 27 27 24 27 28 33 36 37 31 33
6 8 8 10 12 11 11 6 7 8 7 10 13 15 16 18 19 21 22 26 30 33 36 36 36 35 34 34 33 33 33 32 30 24 26 23 24 28 30 32 32 27 31 31
Wind_Direction
181 197 204 206 213 216 213 215 225 222 219 211 220 237 242 234 223 224 211 203 228 219 204 242 237 229 233 235 245 267 265 258 257 270 273 273 269 274 274 272 273 271 271 244
184 203 204 207 210 213 217 216 227 233 220 218 222 235 241 216 241 209 207 230 235 219 216 269 254 250 244 250 259 265 266 260 269 265 267 262 263 264 273 281 280 276 270 278
196 200 200 208 215 213 219 230 232 236 200 210 221 246 236 237 207 219 210 211 196 213 226 256 269 263 260 264 262 261 262 261 257 256 254 258 259 259 267 278 281 287 283 281
205 204 204 203 212 210 218 221 233 223 205 223 217 244 227 216 204 193 204 205 202 208 235 243 249 261 271 272 270 262 261 254 253 250 251 260 260 251 258 265 275 274 275 274
208 204 201 206 207 206 219 213 220 226 220 217 215 221 246 199 208 197 192 202 217 212 231 226 232 250 257 261 265 265 256 256 254 248 249 255 253 246 251 255 242 257 270 267
207 210 207 209 209 211 218 215 198 223 225 212 234 210 236 208 211 205 185 185 177 167 203 216 235 255 253 268 267 260 257 255 252 250 250 250 250 249 250 251 250 251 260 259
211 207 207 199 210 206 210 205 206 204 228 239 228 217 234 220 205 201 191 199 190 213 206 186 205 247 266 272 272 265 258 255 253 253 255 254 255 256 254 255 248 253 260 261
203 214 196 199 202 198 202 204 213 199 211 228 234 216 233 180 191 186 182 208 223 199 233 241 233 266 271 279 275 265 262 261 258 257 258 259 259 260 263 264 261 257 257 253
205 207 196 199 205 207 198 218 223 283 294 257 236 118 123 144 144 157 161 166 169 167 183 218 281 291 291 278 278 284 279 280 280 277 272 270 273 271 271 271 269 271 266 247
214 214 198 188 203 213 216 216 228 230 253 346 218 158 174 171 168 164 166 172 181 189 188 201 211 233 237 279 283 276 289 289 282 282 281 280 277 277 277 277 276 270 263 258
227 236 195 188 198 210 206 234 242 236 243 230 158 340 303 178 176 177 173 177 181 169 179 232 258 259 283 264 266 290 289 284 282 277 275 276 278 279 277 275 276 277 276 274
195 264 176 200 203 218 222 225 228 242 250 291 79 136 146 155 175 184 185 182 177 183 201 205 232 238 226 250 247 273 288 281 276 279 279 278 277 277 278 278 279 282 281 278
186 213 191 190 239 215 223 220 236 225 243 247 252 277 225 198 180 198 175 189 207 223 250 233 239 253 264 257 269 277 274 282 281 285 290 290 290 290 287 285 284 282 280 279
185 185 199 200 197 210 211 219 215 209 209 250 244 154 175 161 169 189 205 209 220 233 259 253 245 237 253 259 260 267 274 282 279 284 290 291 292 290 287 284 283 282 279 278
195 198 213 146 177 247 216 222 230 240 240 209 245 279 293 247 164 193 206 227 243 249 255 268 262 241 242 253 267 271 280 281 286 290 292 293 292 292 292 291 289 287 284 283
188 193 210 163 198 187 156 208 243 243 241 257 239 246 169 146 197 227 248 247 251 255 244 245 260 272 272 269 264 263 273 284 295 298 300 298 297 295 295 293 291 290 288 287
185 193 213 257 199 212 225 228 217 222 222 219 224 229 229 214 190 221 248 244 264 264 252 242 247 257 266 268 276 276 281 288 293 297 300 301 301 300 299 297 295 293 291 290
188 189 187 200 176 209 125 141 175 213 211 216 220 209 221 238 257 257 249 237 235 227 228 236 252 257 267 275 276 278 282 286 293 297 299 300 301 300 299 298 296 294 293 293
170 188 188 156 180 134 144 121 119 151 142 143 148 171 175 223 203 275 254 246 246 248 250 263 261 274 282 279 283 288 289 290 294 298 300 300 299 301 300 298 298 296 295 294
165 183 191 192 196 208 136 133 166 126 115 124 130 177 234 305 286 275 288 271 269 270 271 278 287 288 296 293 290 287 287 291 295 296 299 302 304 301 300 299 299 298 297 296
166 160 172 193 202 89 142 157 165 185 158 162 137 223 291 283 260 263 279 280 282 287 296 304 308 289 291 292 286 284 285 290 293 300 305 303 302 301 300 299 299 300 299 300
165 152 180 193 188 166 159 91 183 162 171 183 289 295 260 248 253 257 279 279 298 311 304 296 290 282 276 277 279 284 289 295 303 305 303 302 302 301 300 301 302 307 307 306
160 181 174 196 184 139 119 168 176 193 191 302 247 250 269 290 304 314 309 301 291 287 282 276 274 276 279 281 286 293 299 302 302 302 302 303 302 303 303 306 306 307 307 309
129 139 172 157 166 174 155 118 133 127 208 244 258 282 299 290 297 291 284 280 280 283 285 287 288 290 294 297 300 299 300 301 302 302 303 303 305 308 307 307 307 311 311 308
146 180 162 162 156 143 157 176 169 208 240 259 289 277 299 296 294 297 298 298 299 298 298 301 303 301 300 299 298 299 298 301 302 303 304 304 305 310 311 313 313 313 314 310
145 148 189 137 165 185 177 171 265 269 244 276 309 309 305 307 310 313 313 309 311 312 307 306 305 304 303 302 302 300 300 303 304 304 308 306 308 308 315 317 318 319 319 318
Height
3073 3080 3080 3084 3089 3094 3102 3103 3106 3107 3110 3112 3115 3116 3118 3120 3122 3123 3129 3136 3135 3140 3143 3144 3141 3141 3142 3144 3144 3146 3149 3146 3146 3142 3145 3149 3151 3152 3153 3153 3152 3150 3149 3142
3074 3073 3079 3084 3088 3090 3094 3096 3099 3102 3103 3113 3112 3112 3114 3114 3118 3119 3126 3130 3133 3131 3135 3137 3134 3136 3138 3139 3139 3137 3138 3141 3139 3142 3144 3145 3147 3148 3148 3147 3146 3146 3144 3138
3069 3073 3078 3082 3083 3086 3089 3092 3094 3095 3101 3105 3108 3110 3110 3110 3111 3114 3119 3125 3128 3132 3131 3134 3133 3132 3132 3133 3132 3132 3132 3134 3135 3138 3140 3141 3142 3143 3143 3143 3142 3141 3141 3139
3069 3072 3074 3077 3078 3082 3085 3088 3090 3093 3095 3099 3105 3104 3101 3105 3107 3110 3114 3121 3124 3128 3130 3130 3130 3128 3127 3129 3127 3127 3129 3130 3132 3134 3136 3136 3138 3139 3141 3140 3138 3136 3139 3139
3065 3067 3071 3073 3076 3081 3083 3086 3087 3090 3090 3095 3096 3100 3093 3098 3103 3106 3111 3119 3120 3122 3125 3126 3125 3125 3125 3124 3124 3126 3126 3127 3128 3129 3131 3131 3131 3133 3135 3135 3134 3131 3131 3133
3062 3064 3067 3071 3075 3077 3080 3085 3085 3089 3088 3089 3089 3090 3090 3090 3094 3102 3105 3111 3112 3117 3119 3121 3121 3120 3120 3119 3121 3121 3122 3124 3124 3124 3125 3127 3125 3127 3129 3128 3126 3126 3126 3126
3059 3060 3063 3067 3071 3075 3078 3082 3082 3084 3084 3082 3083 3085 3083 3082 3087 3093 3100 3103 3107 3111 3115 3117 3118 3113 3115 3116 3115 3115 3116 3116 3116 3118 3118 3119 3121 3120 3121 3122 3118 3119 3119 3119
3054 3057 3057 3062 3066 3069 3073 3078 3076 3076 3077 3074 3076 3074 3076 3076 3084 3093 3097 3101 3103 3108 3110 3111 3112 3109 3110 3110 3110 3111 3110 3110 3110 3109 3111 3112 3113 3111 3111 3113 3113 3111 3111 3108
3047 3051 3054 3059 3063 3067 3069 3069 3071 3072 3078 3075 3067 3073 3081 3081 3086 3089 3094 3099 3102 3107 3110 3109 3108 3107 3102 3105 3108 3107 3105 3106 3104 3106 3105 3106 3106 3106 3104 3103 3103 3104 3104 3102
3046 3048 3053 3056 3062 3063 3064 3070 3073 3076 3074 3077 3066 3070 3076 3080 3084 3087 3091 3095 3098 3102 3105 3107 3108 3106 3105 3104 3104 3103 3102 3102 3102 3102 3103 3102 3101 3100 3100 3099 3099 3098 3098 3097
3045 3048 3052 3055 3057 3059 3063 3067 3065 3066 3064 3064 3078 3080 3074 3078 3082 3087 3090 3094 3096 3098 3103 3104 3105 3103 3102 3102 3099 3098 3099 3099 3096 3098 3098 3096 3094 3093 3093 3092 3092 3091 3089 3088
3042 3045 3046 3051 3056 3058 3059 3061 3062 3061 3062 3060 3067 3078 3075 3075 3080 3087 3090 3091 3093 3095 3096 3100 3102 3101 3099 3098 3096 3095 3089 3093 3091 3088 3088 3088 3086 3085 3084 3082 3081 3079 3077 3076
3039 3044 3048 3050 3054 3053 3055 3058 3060 3066 3062 3063 3066 3075 3077 3078 3079 3084 3089 3089 3092 3092 3092 3095 3096 3095 3095 3093 3091 3089 3087 3085 3082 3079 3079 3079 3075 3074 3072 3070 3068 3067 3065 3064
3034 3041 3044 3049 3050 3053 3055 3056 3059 3061 3064 3068 3068 3072 3073 3076 3080 3081 3086 3088 3091 3091 3092 3092 3090 3092 3092 3088 3087 3085 3082 3079 3075 3074 3071 3070 3067 3065 3061 3061 3058 3056 3053 3051
3034 3040 3045 3047 3046 3051 3052 3055 3058 3062 3063 3069 3071 3069 3073 3074 3075 3083 3084 3084 3085 3087 3087 3086 3084 3085 3085 3083 3080 3079 3076 3071 3067 3065 3062 3060 3057 3054 3051 3049 3047 3044 3041 3039
3034 3040 3041 3046 3051 3053 3053 3055 3057 3060 3064 3063 3068 3073 3073 3076 3078 3080 3082 3081 3081 3083 3083 3082 3082 3080 3079 3077 3075 3071 3067 3062 3060 3057 3053 3049 3048 3045 3040 3038 3036 3031 3028 3025
3034 3038 3044 3047 3050 3052 3055 3053 3056 3059 3062 3065 3068 3071 3071 3073 3076 3079 3080 3080 3080 3079 3078 3078 3076 3074 3070 3069 3066 3061 3057 3055 3052 3048 3044 3040 3037 3033 3030 3027 3022 3018 3014 3010
3032 3039 3045 3047 3050 3050 3049 3049 3052 3056 3060 3064 3066 3068 3070 3073 3075 3077 3077 3074 3072 3071 3069 3068 3067 3064 3063 3061 3058 3054 3049 3047 3042 3038 3034 3030 3026 3022 3018 3013 3009 3004 3000 2997
3033 3037 3040 3043 3044 3046 3048 3051 3054 3056 3060 3060 3063 3068 3071 3068 3070 3069 3068 3066 3065 3064 3063 3061 3059 3057 3054 3052 3049 3045 3040 3035 3031 3027 3023 3019 3014 3009 3004 3000 2995 2991 2985 2982
3031 3034 3039 3040 3042 3043 3048 3049 3051 3054 3059 3061 3063 3065 3065 3066 3070 3067 3062 3061 3059 3059 3057 3056 3055 3051 3047 3044 3039 3033 3029 3024 3020 3015 3011 3007 3003 2997 2992 2987 2981 2976 2971 2966
3030 3035 3038 3041 3042 3047 3048 3048 3050 3055 3063 3059 3061 3062 3063 3064 3065 3060 3056 3054 3053 3052 3050 3049 3046 3045 3041 3035 3028 3023 3019 3013 3007 3004 3001 2996 2990 2985 2979 2973 2968 2963 2958 2953
3030 3034 3038 3041 3043 3048 3047 3048 3051 3053 3055 3057 3058 3058 3055 3054 3053 3052 3051 3049 3049 3047 3045 3043 3039 3035 3030 3024 3017 3012 3007 3000 2998 2994 2989 2984 2979 2973 2968 2962 2958 2954 2949 2944
3032 3034 3037 3041 3043 3044 3044 3046 3048 3050 3053 3054 3053 3051 3050 3050 3048 3048 3047 3045 3042 3039 3035 3030 3026 3022 3018 3012 3004 2999 2995 2992 2988 2984 2979 2974 2969 2963 2958 2955 2951 2947 2940 2933
3030 3033 3036 3038 3041 3043 3045 3046 3048 3048 3049 3048 3048 3048 3048 3046 3044 3041 3038 3034 3030 3027 3023 3018 3013 3009 3004 3000 2995 2989 2984 2981 2978 2974 2970 2965 2960 2957 2953 2949 2943 2938 2932 2925
3031 3033 3036 3037 3040 3042 3044 3043 3044 3044 3044 3044 3044 3042 3041 3038 3035 3032 3028 3024 3020 3016 3011 3007 3003 2998 2994 2988 2984 2980 2975 2972 2969 2965 2961 2958 2954 2951 2948 2942 2936 2930 2924 2917
3031 3033 3036 3035 3037 3039 3040 3041 3040 3041 3041 3039 3038 3037 3034 3031 3028 3024 3021 3017 3012 3008 3003 2998 2993 2988 2983 2979 2975 2971 2967 2964 2960 2958 2955 2952 2949 2945 2940 2936 2932 2925 2917 2912